COSMOS 1333

Satellite information

Favourite Embed

Satellite Type and Status

PAYLOADIN ORBIT

Key statistics

Satellite COSMOS 1333 at a glance.

Uptime

16040

Days in orbit

Revolutions

≈ 13.7

Per day

Orbit

LEO

Low Earth Orbit

Inclination

82.9

Latest

Satellite identification and parameters

Extended collection of information and parameters for COSMOS 1333.

Object identification

Identified? True

Debris? False

Object name: COSMOS 1333

International designator: 1982-003A

Object number (NORAD): 13033

Object ID (CCSDS): 13033

Country: COMMONWEALTH OF INDEPENDENT STATES (CIS)

Current information (Y/N): Y

RCS size: LARGE

Orbital parameters

Period: 104.845 minutes

Inclination: 82.9415 deg

SMA: 7365.334 km

Apoapsis: 1010.784 km

Periapsis: 963.613 km

RAAN: 302.3595 deg

Eccentricy: 0.00320223

Argument of periapsis: 348.5103 deg

Mean anomaly: 185.7558 deg

Mean motion: 13.73453996 rev/day

Mean motion (dot): 0.00000079 rev/day2

B* drag term: 0.000069192922 1/REarth

Two-line elements (TLE)

Creation date: Dec. 14, 2025, 3:07 a.m.

Reference frame: TEME

Reference center: EARTH

Epoch: Dec. 13, 2025, 2:33 p.m. UTC

TLE line 0: 0 COSMOS 1333

TLE line 1: 1 13033U 82003A 25347.60657083 .00000079 00000-0 69193-4 0 9997

TLE line 2: 2 13033 82.9415 302.3595 0032022 348.5103 185.7558 13.73453996200710

Live tracking on map

Real-time ground track for satellite COSMOS 1333.

In-orbit conjunctions

A list of the most updated potential collisions computed for object COSMOS 1333.

Target Orbit TCA Probability of collision Miss distance Type
DMSP 5D-2 F13 DEB SSO 2025-11-26 23:34:44 0.0001280792 215.0 (m) DEBRIS
CALSPHERE 1 SSO 2025-03-23 15:08:24 0.0001354822 890.0 (m) PAYLOAD

Associated space launch

Navigation satellite providing location information for the Tsiklon-B navigation system

COSMOS 1333 was lifted into orbit during the mission ‘Kosmos-3M | Parus 30’, on board a Kosmos-3M space rocket.

The launch took place on Jan. 14, 1982, 7:51 a.m. from 132/2.

For more information about the launch, click the button.

Launch to space Kosmos-3M | Parus 30
Kosmos-3M | Parus 30

Agency: N/A

Status: Launch Successful

Launch date: Jan. 14, 1982, 7:51 a.m. UTC

Rocket: Kosmos-3M

Launch pad: 132/2

Location: Plesetsk Cosmodrome, Russian Federation

...

Latest news about this satellite

There are no fresh news available about this satellite. Check back as we update our databases every day.


Newsletter sign-up

Weekly statistics, charts and insights to help you stay on top of the space industry.